Location: ????????
(54.9045°N, 39.1041°E)
Time: 03:20:45
(UTC+00:00)

S3M - Pass Details

Date: 14 April 2024
Orbit: 949 x 1003 km, 83.0° (Epoch: 25 May)

Event Time Altitude Azimuth Distance (km) Brightness Sun altitude
Rises 01:27:10 0° 348° (NNW) 3,640 7.2 -8.1°
Reaches altitude 10° 01:29:40 10° 349° (N) 2,694 6.6 -7.8°
Maximum altitude 01:35:50 88° 76° (ENE) 968 4.1 -7.0°
Drops below altitude 10° 01:42:03 10° 170° (S) 2,704 6.2 -6.2°
Sets 01:44:33 0° 171° (S) 3,654 6.8 -5.9°
